Regional Weather Roundup
Issued by NWS

Home | Current Version | Previous Version | Graphics & Text | Print | Product List | Glossary Off
Versions: 1 2 3 4 5 6 7 8 9 10 11 12 13 14 15 16 17 18 19 20 21 22 23 24 25 26 27 28 29 30 31 32 33 34 35 36 37 38 39 40 41 42 43 44 45 46 47 48 49 50

000
ASUS43 KMKX 271827
RWRWI

WISCONSIN REGIONAL WEATHER ROUNDUP
NATIONAL WEATHER SERVICE MILWAUKEE/SULLIVAN WI
100 PM CDT WED MAY 27 2015

NOTE: "FAIR" INDICATES FEW OR NO CLOUDS BELOW 12,000 FEET WITH NO
SIGNIFICANT WEATHER AND/OR OBSTRUCTIONS TO VISIBILITY.

WIZ001-002-006>008-014>016-023>028-271900-
NORTHWEST WISCONSIN

CITY           SKY/WX    TMP DP  RH WIND       PRES   REMARKS
SUPERIOR ARPT  FAIR      79  59  49 W9        29.85F HX  80
ASHLAND        PTSUNNY   79  59  50 SW10      29.87R HX  80
6HR MIN TEMP:  55; 6HR MAX TEMP:  79;

HAYWARD        FAIR      74  56  53 SW9       29.91S
6HR MIN TEMP:  53; 6HR MAX TEMP:  74;

SIREN          FAIR      74  57  55 SW9       29.92R
CUMBERLAND     FAIR      72  57  60 SW9       29.94R
RICE LAKE      FAIR      74  56  53 SW9       29.95R
CHETEK         FAIR      73  58  61 SW6G16    29.94R
LADYSMITH      FAIR      72  57  59 W8        29.95R
EAU CLAIRE     NOT AVBL
MENOMONIE      FAIR      74  59  58 SW10      29.95S
NEW RICHMOND   FAIR      73  58  59 SW10      29.95R
OSCEOLA        FAIR      74  59  59 SW9       29.96S
$$

WIZ003>005-009-010-017-018-271900-
NORTH CENTRAL WISCONSIN

CITY           SKY/WX    TMP DP  RH WIND       PRES   REMARKS
MANITOWISH WTR SUNNY     68  58  70 W10       29.90R
ARBOR VITAE    SUNNY     72  60  67 W10       29.90R
WOODRUFF       SUNNY     72  60  67 W10       29.90R
RHINELANDER    SUNNY     71  58  63 W13       29.92R
6HR MIN TEMP:  53; 6HR MAX TEMP:  71; 6HR PCP:  0.12;

EAGLE RIVER    SUNNY     69  55  61 W8G16     29.89R
LAND O LAKES   SUNNY     72  56  58 NW7       29.89S
PHILLIPS       FAIR      69  59  69 SW8       29.92R
TOMAHAWK       SUNNY     67  57  70 W8        29.93S
MEDFORD        PTSUNNY   67  59  76 SW10G20   29.95R
MERRILL        MOSUNNY   67  59  76 W12       29.95R
$$

WIZ029-030-035-036-043>047-271900-
CENTRAL WISCONSIN

CITY           SKY/WX    TMP DP  RH WIND       PRES   REMARKS
WAUSAU         PTSUNNY   68  60  75 W10       29.94S
6HR MIN TEMP:  55; 6HR MAX TEMP:  68; 6HR PCP:  0.14;

MOSINEE        NOT AVBL
MARSHFIELD     FAIR      71  58  63 W10G20    29.97R
6HR MIN TEMP:  57; 6HR MAX TEMP:  72; 6HR PCP:  0.02;

STEVENS POINT  CLOUDY    61  58  91 W3        29.97S
WAUPACA        PTSUNNY   67  60  77 W5        29.95S
WAUTOMA        NOT AVBL
WISC RAPIDS    FAIR      71  56  58 VRB3      29.98R
6HR MIN TEMP:  57; 6HR MAX TEMP:  71; 6HR PCP:  0.02;

CAMP DOUGLAS   NOT AVBL
$$

WIZ011>013-019>022-031-037>040-048>050-271900-
NORTHEAST WISCONSIN

CITY           SKY/WX    TMP DP  RH WIND       PRES   REMARKS
ANTIGO         PTSUNNY   65  59  81 W13G23    29.93R
SHAWANO        CLOUDY    67  59  75 W10       29.92S
OCONTO         CLOUDY    63  61  93 SW7       29.90S
STURGEON BAY   CLOUDY    63  55  77 SW9       29.93S
6HR MIN TEMP:  57; 6HR MAX TEMP:  63;

GREEN BAY      PTSUNNY   66  59  78 W9        29.93S
6HR MIN TEMP:  59; 6HR MAX TEMP:  66; 6HR PCP:  0.04;

MANITOWOC      NOT AVBL
APPLETON       PTSUNNY   64  55  72 W6        29.96S
CLINTONVILLE   CLOUDY    64  59  82 W7        29.93S
OSHKOSH        CLOUDY    65  55  70 W6        29.97R
6HR MIN TEMP:  59; 6HR MAX TEMP:  65; 6HR PCP: TRACE;

$$

WIZ032>034-041-042-053>061-271900-
SOUTHWEST WISCONSIN

CITY           SKY/WX    TMP DP  RH WIND       PRES   REMARKS
LA CROSSE      FAIR      76  58  53 VRB7      29.98R
6HR MIN TEMP:  61; 6HR MAX TEMP:  77;

SPARTA         FAIR      72  53  51 W9        29.99R
VIROQUA        FAIR      71  55  57 CALM      30.02R
BOSCOBEL       FAIR      73  56  54 VRB3      30.02R
6HR MIN TEMP:  61; 6HR MAX TEMP:  76;

PRAIRIE DU CHI FAIR      73  56  55 S6        30.01R
PLATTEVILLE    PTSUNNY   71  59  66 NW8       30.03R
$$

WIZ056-057-062-063-064-067-068-271900-
SOUTH CENTRAL WISCONSIN

CITY           SKY/WX    TMP DP  RH WIND       PRES   REMARKS
REEDSBURG      FAIR      69  55  59 W3        29.99S
BARABOO/DELLS  PTSUNNY   68  52  57 NW5       30.00R
LONE ROCK      NOT AVBL
MINERAL POINT  FAIR      70  54  56 NW7       30.03R
MADISON        PTSUNNY   70  57  63 N10       30.00R
6HR MIN TEMP:  61; 6HR MAX TEMP:  70; 6HR PCP: TRACE;

MIDDLETON      FAIR      71  55  56 N9G16     30.01R
WATERTOWN      CLOUDY   N/A N/A N/A N13G22    29.98R
MONROE         PTSUNNY   68  55  64 NW13G22   30.01R
JANESVILLE     PTSUNNY   68  61  77 NW12      29.99R
$$

WIZ051-052-058>065-066-070>072-271900-
SOUTHEAST WISCONSIN

CITY           SKY/WX    TMP DP  RH WIND       PRES   REMARKS
MILWAUKEE      PTSUNNY   69  55  60 W15G23    29.96R
6HR MIN TEMP:  63; 6HR MAX TEMP:  71; 6HR PCP:  0.01;

WAUKESHA       NOT AVBL
MILWAUKEE/TIMM PTSUNNY   64  55  72 NW18      29.97R
RACINE         CLOUDY    69  60  73 NW10G17   29.98R
6HR MIN TEMP:  63; 6HR MAX TEMP:  71; 6HR PCP:  0.24;

BURLINGTON     PTSUNNY   63  58  83 W8        29.99R
KENOSHA        CLOUDY    65  60  84 NW14      29.98R
6HR MIN TEMP:  62; 6HR MAX TEMP:  72; 6HR PCP:  0.13;

FOND DU LAC    CLOUDY    65  55  70 NW6       29.98S
6HR MIN TEMP:  61; 6HR MAX TEMP:  65; 6HR PCP: TRACE;

SHEBOYGAN      CLOUDY    65  57  75 N16       29.96R
6HR MIN TEMP:  62; 6HR MAX TEMP:  67;

WEST BEND      CLOUDY    64  54  68 NW14      29.97R
JUNEAU         CLOUDY    62  54  75 N10       30.01R
$$

LSZ147-162-271900-
LAKE SUPERIOR

STATION/POSITION TIME  TEMP    WIND        PRES    WAVE
                       AIR SEA DIR/SP/G            HT/PER
                 (UTC) (F)     (DEG/KT/KT) (MB)    (FT/S)
W MID LAKE BUOY  1650   41 37  220/ 10/ 10   N/A     2/ 3
DEVILS ISLAND    1700   54     220/ 10/ 12   N/A
PORT WING        1700   69     260/  7/ 10   N/A
SAXON HARBOR     1740   76     200/  4/  8   N/A
$$

LMZ867-665-643>646-271900-
LAKE MICHIGAN

STATION/POSITION TIME  TEMP    WIND        PRES    WAVE
                       AIR SEA DIR/SP/G            HT/PER
                 (UTC) (F)     (DEG/KT/KT) (MB)    (FT/S)
CHAMBERS ISLAND  1700   60     200/  6/ 10   N/A
N MID LAKE BUOY  1650   45 36  240/ 12/ 12   N/A     3/ 6
NORTHPORT PIER   1600   57     260/  5/ 12   N/A
SISTER BAY       1718   61     270/ 11/ 11   N/A
ALGOMA LAKESHORE 1708          310/  5/  9   N/A
KEWAUNEE LAKESHO 1700   62     310/ 10/ 15   N/A
SHEBOYGAN LAKESH 1700   62     290/ 15/ 19   N/A
PORT WASHINGTON  1640   65     280/  7/ 14   N/A
ATWATER BUOY     1700   58 47  280/ 12/ 14   N/A
MILWAUKEE LAKESH 1700   66     300/ 13/ 20   N/A
S MID LAKE BUOY  1650   46 38  240/  8/ 10   N/A     1/ 4
KENOSHA   LAKESH 1700   69     240/ 13/ 19   N/A
$$

TC  - TEMPERATURE IN CELSIUS
VSB - VISIBILITY IN STATUTE MILES
WCI - WIND CHILL INDEX
HX  - HEAT INDEX



USA.gov is the U.S. government's official web portal to all federal, state and local government web resources and services.